Wind_Speed
29 28 27 27 26 25 24 24 24 23 22 21 20 19 18 18 18 18 19 19 19 19 18 18 19 19 19 19 20 20 20 19 19 19 19 20 20 20 20 21 22 22 23 23
30 29 30 29 28 27 27 26 26 25 24 22 22 21 20 20 20 20 20 21 21 21 21 21 21 21 21 21 21 22 21 21 21 21 21 21 21 22 23 23 24 24 24 24
31 30 31 31 29 28 29 28 27 27 26 25 24 23 21 21 22 21 21 21 22 22 23 23 24 24 24 24 24 24 24 24 24 24 24 23 24 24 25 26 26 26 26 26
32 33 35 32 29 29 30 29 29 29 27 27 26 25 24 23 23 23 23 24 24 25 25 26 26 26 26 27 26 26 26 27 27 27 27 27 27 27 28 28 27 28 28 28
34 34 35 34 31 31 31 30 29 29 28 28 26 26 27 26 26 25 25 26 26 27 28 28 28 28 28 28 29 29 29 29 30 30 30 29 29 30 30 31 30 30 31 31
35 35 34 32 31 30 30 31 30 29 29 28 28 28 28 27 28 27 28 28 28 29 29 29 30 30 30 30 30 30 30 31 32 32 32 32 32 32 33 33 33 33 33 34
35 35 34 32 30 29 30 30 30 30 30 29 29 29 29 29 30 29 29 30 29 29 30 31 32 31 31 31 31 32 32 33 33 34 34 34 35 35 35 35 35 35 35 36
35 34 34 33 32 31 31 30 31 30 30 30 30 30 30 30 31 31 31 31 30 29 30 31 32 33 33 32 33 33 34 34 34 35 36 36 37 37 37 37 37 37 37 37
34 33 33 32 32 31 31 31 32 32 31 30 30 30 30 31 32 32 32 32 31 31 31 31 32 33 33 33 34 35 35 36 36 37 38 39 39 39 39 39 39 39 39 38
33 33 32 32 32 31 31 32 32 32 32 32 32 31 32 32 32 32 32 32 32 32 32 32 33 34 35 36 36 36 36 37 37 38 39 40 40 40 41 41 40 40 40 39
33 32 32 32 32 32 32 32 32 32 33 33 33 32 33 33 32 32 33 33 34 34 33 34 35 36 36 37 37 37 37 38 38 38 40 40 41 41 41 41 41 41 41 40
33 33 33 33 33 33 33 33 33 32 32 33 34 34 34 34 34 33 33 34 34 35 35 35 36 36 37 37 36 36 36 38 39 39 40 41 42 41 41 42 41 41 41 41
35 34 35 34 34 34 33 33 33 33 32 32 33 34 34 34 34 34 34 35 35 35 36 36 37 37 37 37 37 36 37 38 39 40 40 41 42 41 41 40 40 41 42 42
35 35 35 34 34 33 33 33 33 33 33 32 32 33 34 34 35 35 35 36 36 37 37 37 37 38 38 38 38 37 37 38 39 40 41 41 41 41 40 41 41 41 40 40
34 34 35 34 34 34 33 32 32 32 33 34 33 33 34 35 35 36 36 36 37 37 38 38 38 38 38 38 38 38 38 38 39 40 39 40 40 40 40 39 39 39 39 39
34 34 34 34 34 33 33 33 33 32 32 34 35 35 35 35 36 37 38 38 37 37 38 38 38 38 37 37 38 38 39 38 38 38 39 38 38 38 38 37 37 38 38 39
33 34 34 34 34 33 34 34 33 32 32 33 34 35 35 36 36 37 38 38 38 37 36 37 37 38 37 38 38 39 39 38 37 37 37 37 38 38 38 37 36 36 36 36
31 31 31 32 32 32 31 32 32 32 32 32 32 33 34 35 35 35 35 35 35 35 36 36 36 37 37 38 38 38 38 37 36 36 37 37 37 36 36 36 34 34 35 34
29 29 29 30 30 29 29 30 31 31 31 31 31 32 33 33 33 33 34 34 33 34 34 35 36 36 37 37 38 37 37 36 35 35 35 34 34 34 34 33 33 33 31 30
27 27 28 28 28 28 29 29 30 30 30 30 30 31 31 31 31 31 32 32 32 33 34 34 34 34 35 35 35 34 34 34 33 33 33 33 32 32 32 31 30 30 29 29
24 24 25 25 25 25 26 27 28 28 28 28 28 29 29 29 30 30 31 31 31 31 32 32 33 33 33 33 33 32 31 32 32 32 32 31 31 31 30 30 29 29 28 28
22 22 22 22 23 23 24 25 26 26 27 27 27 27 27 28 28 29 29 29 29 30 30 31 31 31 31 31 31 30 30 30 30 30 30 30 30 30 29 29 29 28 27 27
22 21 21 21 21 21 22 22 22 23 24 24 24 24 24 25 26 27 27 27 27 28 28 28 28 28 28 29 28 28 28 29 28 28 29 29 28 28 28 28 28 28 28 27
21 21 21 20 20 20 20 20 20 20 20 21 21 21 22 22 22 22 23 24 24 24 24 24 24 24 25 25 25 25 25 26 26 26 27 27 27 27 27 27 27 27 26 26
20 20 19 19 18 18 18 18 18 18 19 19 19 19 20 20 20 20 21 21 21 21 21 21 21 21 21 21 22 23 24 24 25 25 25 24 24 25 25 26 25 25 24 24
18 17 16 16 17 17 18 18 17 18 19 18 18 18 19 19 19 18 19 19 18 18 19 20 20 20 20 21 22 22 23 23 22 22 22 22 23 23 23 22 22 22 22 23
15 14 15 15 16 17 18 18 18 17 17 18 18 18 18 18 17 17 18 18 17 18 18 19 19 19 20 20 21 21 21 21 21 21 21 22 22 22 21 21 21 22 22 23
Wind_Direction
243 244 247 250 252 253 253 255 257 260 263 262 262 263 264 264 266 267 267 266 267 268 271 276 280 283 285 288 289 292 293 295 297 299 300 303 304 305 306 304 304 306 306 306
246 247 249 250 250 251 253 256 258 260 262 262 261 262 263 263 263 265 265 266 267 269 271 275 277 280 283 284 285 287 290 292 294 295 297 298 299 300 302 303 303 305 305 305
247 249 250 251 251 252 254 256 258 260 261 259 258 261 263 265 264 265 265 264 266 269 272 273 275 278 280 281 282 284 286 288 291 292 294 294 295 297 297 298 300 301 301 301
248 250 250 251 252 252 253 254 256 258 259 260 260 260 262 264 265 266 266 265 264 267 269 271 274 276 278 281 282 282 284 286 287 289 290 291 292 293 295 295 297 298 298 299
248 251 254 253 252 252 254 254 255 257 258 259 259 260 261 262 263 265 267 267 267 267 268 271 274 276 277 279 281 281 282 284 285 286 287 289 290 292 294 294 295 295 296 297
247 249 252 254 253 252 254 256 255 256 257 258 258 259 260 262 263 264 266 268 268 270 270 272 274 275 276 278 279 280 281 283 284 285 287 289 290 293 294 294 294 294 294 295
247 249 251 253 254 252 254 256 256 257 256 257 258 258 259 261 263 265 266 268 269 270 271 272 274 276 277 277 278 279 281 283 284 286 287 289 291 293 293 293 293 293 293 293
248 250 252 254 254 253 254 255 255 256 257 258 258 260 260 261 263 265 266 268 270 271 272 274 275 276 277 277 278 280 282 283 285 287 287 289 290 291 292 292 293 293 292 291
247 250 253 254 255 256 257 257 257 256 258 258 259 260 260 262 264 265 266 268 270 272 275 275 276 276 277 278 279 281 283 284 286 287 288 288 290 291 292 292 291 291 291 290
248 249 252 254 255 257 258 259 259 259 259 259 260 260 261 263 264 266 268 269 271 272 273 274 275 276 278 278 280 282 284 285 286 287 288 288 289 291 292 292 291 291 290 290
248 250 252 253 254 256 258 260 261 260 259 258 259 260 261 263 264 266 267 268 269 271 272 273 275 276 277 279 279 281 283 285 286 286 287 287 288 289 290 290 290 290 291 290
249 250 252 254 254 256 258 259 260 259 259 259 260 260 262 263 264 265 266 267 268 270 271 272 275 277 278 280 280 281 282 284 285 286 287 288 290 290 291 290 290 290 291 291
249 251 252 255 255 257 259 259 259 258 258 260 261 261 262 263 264 265 265 266 269 271 273 273 275 277 280 281 282 283 283 283 284 286 288 289 290 290 290 290 291 290 289 290
250 252 253 254 256 257 258 258 259 257 257 258 261 262 262 263 264 265 266 267 269 271 272 274 275 277 278 281 283 283 284 285 285 286 287 288 290 290 290 290 291 290 289 289
252 254 254 255 256 256 257 257 258 258 257 258 260 262 263 263 265 267 269 270 270 271 272 274 276 277 278 280 282 283 285 285 287 288 289 290 290 291 291 291 291 291 290 290
251 253 254 255 256 255 256 257 258 259 259 260 260 261 263 265 266 268 270 270 270 271 273 274 276 279 280 282 284 286 286 287 287 288 290 292 293 291 290 290 291 292 292 291
250 252 253 255 255 256 256 257 258 259 260 261 262 262 263 265 267 269 269 270 271 271 272 274 275 277 279 282 285 286 287 288 290 290 291 292 293 293 293 293 293 294 294 293
251 252 254 255 256 256 257 256 256 257 260 261 263 265 267 268 268 268 269 270 270 270 272 273 275 278 281 283 285 287 288 289 290 290 291 291 292 294 295 295 295 295 296 295
251 254 255 255 255 256 256 255 255 257 260 262 265 266 268 269 270 270 269 270 270 272 273 275 277 279 282 284 285 286 286 287 289 289 290 291 292 295 297 297 296 297 298 298
250 252 255 256 256 256 257 257 258 259 261 264 265 267 269 270 271 272 273 273 273 273 275 277 279 281 283 285 286 286 287 287 288 289 290 291 293 296 297 298 297 296 296 296
250 251 254 257 258 258 258 258 258 259 262 264 265 266 267 268 269 271 273 275 276 278 278 279 280 282 284 286 288 289 289 289 290 290 290 291 293 295 296 297 297 296 295 295
247 249 252 255 258 260 260 259 259 259 262 264 265 266 266 267 269 270 272 274 276 278 280 281 281 282 284 285 287 288 289 290 290 289 289 290 291 293 295 297 297 295 295 296
246 249 251 254 258 260 260 260 261 262 264 266 267 266 267 267 268 271 273 275 278 280 283 284 284 284 286 287 288 289 290 290 289 288 289 289 289 291 293 294 294 294 294 295
248 251 250 254 258 259 259 259 260 263 263 265 266 267 267 269 270 272 275 277 280 283 285 287 287 287 288 289 291 293 293 292 290 289 290 289 288 288 290 291 291 294 296 297
250 252 253 255 256 257 256 257 259 262 263 264 265 266 269 271 272 274 275 277 280 283 286 288 288 289 290 292 295 296 295 294 292 291 291 291 292 292 293 293 295 296 297 298
245 246 250 252 252 252 253 255 258 261 262 264 265 266 268 268 270 274 277 280 281 283 286 289 290 290 291 294 294 294 293 294 293 293 293 295 297 298 297 298 299 300 300 301
246 246 250 255 258 257 256 257 259 260 261 264 266 267 267 268 269 272 276 279 282 285 289 290 291 293 295 295 294 294 294 294 294 295 297 299 300 300 300 301 300 300 301 303
Height
5887 5889 5891 5892 5894 5895 5897 5898 5900 5901 5902 5902 5902 5902 5902 5902 5902 5902 5902 5902 5902 5901 5900 5900 5899 5898 5897 5895 5894 5893 5891 5889 5888 5886 5884 5881 5879 5877 5875 5872 5870 5867 5864 5861
5879 5882 5884 5885 5887 5889 5890 5891 5893 5894 5895 5896 5895 5896 5896 5896 5897 5897 5896 5896 5896 5896 5895 5895 5894 5893 5891 5890 5889 5888 5886 5885 5883 5881 5879 5877 5874 5872 5870 5867 5865 5862 5859 5856
5872 5874 5875 5877 5880 5882 5883 5884 5886 5887 5888 5888 5889 5889 5890 5890 5890 5890 5891 5891 5890 5890 5889 5889 5888 5887 5886 5885 5883 5882 5881 5879 5877 5875 5873 5871 5869 5867 5864 5861 5859 5856 5853 5850
5864 5866 5866 5872 5873 5874 5875 5876 5878 5879 5880 5881 5882 5883 5883 5884 5884 5884 5884 5884 5884 5883 5883 5882 5881 5881 5880 5878 5877 5876 5874 5873 5871 5869 5867 5865 5862 5860 5857 5855 5852 5849 5846 5843
5855 5856 5858 5862 5864 5866 5867 5868 5870 5871 5872 5873 5874 5875 5876 5876 5877 5877 5877 5877 5877 5876 5876 5875 5874 5874 5873 5871 5870 5869 5867 5865 5863 5861 5859 5857 5855 5852 5850 5847 5845 5842 5839 5836
5846 5848 5850 5854 5855 5857 5859 5859 5861 5862 5863 5865 5866 5867 5868 5868 5869 5869 5869 5869 5869 5868 5868 5867 5866 5865 5865 5863 5862 5860 5859 5857 5855 5853 5851 5849 5846 5844 5841 5839 5836 5833 5830 5828
5836 5838 5841 5845 5846 5848 5850 5851 5852 5853 5855 5856 5857 5859 5860 5860 5860 5860 5860 5860 5860 5859 5859 5858 5858 5857 5856 5855 5854 5852 5850 5849 5847 5844 5842 5840 5838 5835 5833 5830 5827 5824 5821 5818
5827 5830 5834 5835 5837 5839 5840 5842 5843 5844 5846 5847 5848 5849 5850 5851 5851 5851 5851 5851 5851 5850 5850 5849 5849 5848 5847 5846 5844 5843 5841 5839 5837 5835 5833 5831 5828 5825 5823 5820 5817 5814 5811 5808
5819 5823 5824 5825 5827 5829 5830 5832 5833 5835 5836 5838 5839 5840 5841 5841 5842 5842 5842 5842 5842 5841 5841 5840 5839 5838 5837 5836 5834 5832 5831 5829 5827 5825 5823 5820 5818 5815 5812 5809 5806 5803 5800 5797
5810 5812 5814 5816 5817 5819 5821 5822 5824 5825 5827 5828 5829 5830 5831 5832 5832 5832 5832 5833 5832 5832 5831 5831 5830 5828 5827 5825 5823 5821 5820 5818 5816 5814 5812 5810 5807 5804 5801 5798 5795 5792 5789 5786
5800 5803 5805 5806 5808 5809 5811 5812 5814 5816 5817 5818 5819 5820 5821 5822 5823 5823 5823 5823 5822 5822 5822 5821 5819 5818 5817 5815 5813 5811 5809 5808 5806 5803 5801 5798 5795 5793 5790 5787 5784 5781 5778 5775
5791 5794 5795 5797 5798 5799 5801 5802 5804 5806 5807 5808 5809 5810 5811 5812 5812 5813 5813 5813 5813 5812 5811 5810 5809 5808 5806 5804 5803 5801 5799 5797 5795 5793 5790 5787 5784 5782 5778 5776 5773 5769 5767 5764
5781 5783 5785 5787 5788 5789 5791 5792 5794 5795 5797 5798 5799 5800 5801 5801 5802 5802 5802 5802 5802 5802 5801 5800 5799 5797 5796 5794 5792 5790 5788 5786 5784 5782 5779 5776 5773 5770 5767 5764 5761 5758 5755 5752
5771 5773 5775 5777 5778 5779 5781 5782 5783 5785 5787 5788 5788 5789 5790 5790 5791 5791 5791 5791 5791 5791 5790 5789 5788 5787 5786 5784 5782 5780 5777 5775 5773 5770 5768 5765 5762 5759 5755 5752 5749 5746 5743 5740
5761 5763 5765 5766 5768 5769 5771 5772 5773 5775 5776 5777 5778 5778 5779 5780 5780 5780 5780 5780 5779 5779 5779 5778 5777 5776 5774 5773 5771 5770 5767 5765 5762 5759 5756 5753 5750 5747 5743 5740 5737 5734 5731 5728
5751 5753 5754 5756 5758 5759 5760 5762 5764 5765 5766 5767 5768 5768 5768 5769 5769 5769 5768 5768 5768 5767 5767 5766 5766 5764 5763 5762 5760 5759 5757 5754 5751 5748 5745 5742 5739 5736 5732 5729 5726 5723 5720 5717
5741 5743 5744 5746 5747 5749 5750 5752 5753 5755 5755 5756 5757 5757 5758 5758 5758 5758 5757 5756 5756 5755 5755 5755 5754 5753 5752 5751 5750 5748 5746 5743 5741 5738 5735 5732 5729 5725 5722 5718 5715 5712 5709 5706
5731 5733 5734 5735 5737 5738 5740 5741 5743 5744 5745 5746 5746 5747 5748 5748 5748 5747 5746 5746 5745 5745 5745 5744 5744 5743 5742 5741 5739 5738 5736 5733 5731 5728 5725 5722 5719 5716 5712 5709 5705 5702 5698 5695
5722 5723 5724 5725 5727 5728 5729 5731 5732 5734 5735 5736 5737 5737 5737 5737 5737 5737 5736 5736 5736 5735 5735 5735 5734 5733 5732 5731 5729 5727 5725 5723 5721 5718 5716 5713 5710 5707 5703 5700 5696 5693 5688 5684
5712 5714 5715 5716 5716 5718 5720 5721 5722 5724 5725 5726 5727 5727 5728 5728 5728 5727 5727 5726 5726 5726 5726 5725 5724 5723 5722 5720 5719 5717 5715 5713 5711 5709 5706 5704 5701 5698 5695 5692 5688 5685 5682 5679
5704 5705 5706 5707 5708 5708 5710 5712 5713 5715 5716 5717 5718 5718 5719 5719 5719 5719 5718 5718 5718 5717 5716 5715 5715 5714 5712 5711 5709 5707 5705 5703 5701 5699 5697 5695 5692 5690 5687 5684 5681 5678 5675 5672
5697 5698 5699 5700 5700 5701 5702 5703 5705 5707 5708 5709 5709 5709 5709 5710 5710 5710 5709 5709 5709 5708 5707 5706 5705 5704 5703 5701 5700 5698 5697 5695 5693 5690 5688 5686 5684 5681 5678 5676 5673 5670 5667 5664
5690 5691 5692 5693 5694 5695 5696 5697 5699 5700 5701 5701 5701 5701 5701 5701 5702 5702 5702 5701 5701 5700 5699 5698 5696 5695 5694 5693 5691 5690 5688 5686 5684 5682 5680 5678 5675 5673 5670 5668 5665 5663 5660 5657
5684 5685 5686 5688 5689 5690 5691 5693 5694 5694 5695 5695 5695 5695 5695 5695 5695 5695 5695 5694 5693 5692 5692 5690 5689 5688 5686 5685 5683 5681 5680 5678 5676 5674 5672 5670 5667 5664 5662 5660 5657 5655 5652 5650
5679 5680 5681 5683 5684 5686 5687 5688 5689 5689 5690 5690 5690 5689 5689 5690 5690 5689 5688 5687 5686 5686 5685 5684 5683 5681 5680 5678 5676 5675 5673 5671 5669 5667 5665 5662 5660 5657 5655 5652 5650 5648 5645 5643
5674 5676 5677 5678 5680 5681 5682 5683 5684 5684 5684 5684 5684 5684 5684 5684 5684 5683 5683 5682 5681 5680 5679 5678 5677 5675 5673 5672 5670 5668 5666 5664 5663 5660 5658 5656 5653 5651 5648 5646 5643 5641 5639 5636
5669 5671 5673 5674 5675 5676 5677 5678 5679 5679 5679 5679 5679 5680 5679 5679 5679 5678 5678 5677 5676 5674 5673 5672 5671 5669 5667 5665 5663 5662 5660 5658 5656 5654 5651 5649 5647 5645 5642 5639 5637 5635 5632 5630